Regional Weather Roundup
Issued by NWS

Home | Current Version | Previous Version | Text Only | Print | Product List | Glossary Off
Versions: 1 2 3 4 5 6 7 8 9 10 11 12 13 14 15 16 17 18 19 20 21 22 23 24 25 26 27 28 29 30 31 32 33 34 35 36 37 38 39 40 41 42 43 44 45 46 47 48 49 50

000
ASUS43 KLOT 291906
RWRIL

ILLINOIS REGIONAL WEATHER ROUNDUP
NATIONAL WEATHER SERVICE CHICAGO/ROMEOVILLE IL
200 PM CDT TUE JUL 29 2014

NOTE: "FAIR" INDICATES FEW OR NO CLOUDS BELOW 12,000 FEET WITH NO
SIGNIFICANT WEATHER AND/OR OBSTRUCTIONS TO VISIBILITY.

* THESE STATIONS ARE NOT UNDER NWS QUALITY CONTROL. THEY ALSO MAY NOT
  REPORT WEATHER SUCH AS PRECIPITATION OR FOG.

ILZ001-002-007-009-015-016-024-292000-
NORTHWEST ILLINOIS

CITY           SKY/WX    TMP DP  RH WIND       PRES   REMARKS
MOLINE         MOSUNNY   80  54  40 NW10      30.09  HX  80
STERLING*      SUNNY     79  57  47 NW13      30.07S HX  80
SAVANNA*       MOSUNNY   80  53  38 W9        30.06S HX  80
$$

ILZ003-004-008-010-011-017-018-292000-
NORTH CENTRAL ILLINOIS

CITY           SKY/WX    TMP DP  RH WIND       PRES   REMARKS
ROCKFORD       PTSUNNY   77  54  44 NW10      30.05F
FREEPORT*      PTSUNNY   74  59  58 W9        30.08S
ROCHELLE*      MOSUNNY   79  54  41 NW14G20   30.05S
DE KALB*       PTSUNNY   74  56  53 NW13      30.05S
PERU*          MOSUNNY   78  57  48 W14       30.07S
$$

ILZ005-006-012>014-019>023-292000-
NORTHEAST ILLINOIS

CITY           SKY/WX    TMP DP  RH WIND       PRES   REMARKS
CHICAGO-OHARE  PTSUNNY   80  51  36 NW12G20   30.01F HX  80
CHICAGO-MIDWAY PTSUNNY   79  53  40 N13       30.01F
AURORA         MOSUNNY   78  55  44 NW12      30.04S
LANSING*       PTSUNNY   74  54  49 NE5       30.02S
JOLIET*        MOSUNNY   78  50  37 W9        30.04S
WAUKEGAN       PTSUNNY   78  53  41 NW7G17    30.01S
DUPAGE AIRPORT MOSUNNY   79  55  43 NW16      30.02F
KANKAKEE*      PTSUNNY   76  59  54 W10       30.05S
WHEELING       PTSUNNY   79  52  38 NW14G22   30.03S
MORRIS*        MOSUNNY   79  57  46 NW10G21   30.04S HX  80
ROMEOVILLE*    PTSUNNY   77  53  43 NW13G18   30.03S
NORTHERLY ISL    N/A     70  61  73 E6          N/A
$$

LMZ740>746-292000-
SOUTHERN LAKE MICHIGAN

STATION/POSITION SKY/WX   TEMP    WIND        PRES    VSBY  WAVE
                          AIR SEA DIR/SP/G                  HT/PER
                          (F)     (DEG/KT/KT) (MB)    (MI)  (FT/S)
SOUTHERN BUOY              62 62  310/  2/  4 1016.6F         1
WAUKEGAN HARBOR            66     120/  7/  9   N/A
HARRISON CRIB              66      80/  7/  8   N/A
BURNHAM HARBOR             70     100/  7/  7   N/A
CALUMET HARBOR             68      40/  6/  9 1015.4F
MICHIGAN CITY              69     330/  4/  6   N/A
MICHIGAN CITY 6N           65 68   20/  4/  4   N/A           1/ 2
ST. JOSEPH                 63 67  290/  6/  8   N/A           1/ 3
$$

ILZ025>027-034>036-040-047-049-050-058-095>099-292000-
WEST-CENTRAL ILLINOIS

CITY           SKY/WX    TMP DP  RH WIND       PRES   REMARKS
QUINCY         MOSUNNY   76  53  44 VRB5      30.14F
GALESBURG*     MOSUNNY   80  59  50 W9G20     30.11S HX  80
MACOMB*        PTSUNNY   74  58  56 NW10G17   30.14S
JACKSONVILLE*  MOSUNNY   77  57  49 NW8       30.14S
PITTSFIELD*    MOSUNNY   77  53  43 W6        30.15S
$$

ILZ028>032-037-038-041>044-048-051>054-059>061-292000-
CENTRAL ILLINOIS

CITY           SKY/WX    TMP DP  RH WIND       PRES   REMARKS
PONTIAC        MOSUNNY   79  57  47 W13       30.07S HX  80
DECATUR        SUNNY     76  55  48 W9G21     30.11S
PEORIA         MOSUNNY   79  54  41 W10G18    30.10S
LACON*         MOSUNNY   78  54  44 NW8       30.07S
LINCOLN*       MOSUNNY   79  55  44 W5        30.08S HX  80
SPRINGFIELD    MOSUNNY   78  55  44 W8        30.12S
TAYLORVILLE    MOSUNNY   73  54  49 W6        30.12S
$$

ILZ033-039-045-046-055>057-062-063-292000-
EAST-CENTRAL ILLINOIS

CITY           SKY/WX    TMP DP  RH WIND       PRES   REMARKS
CHAMPAIGN      MOSUNNY   76  58  53 W14       30.10S
DANVILLE*      PTSUNNY   74  58  57 W9        30.05S HAZE
RANTOUL*       MOSUNNY   77  55  47 W12       30.09S
MATTOON        SUNNY     76  55  48 NW10      30.10S
PARIS*         PTSUNNY   75  60  60 NW8       30.09F
$$

ILZ079-100>102-292000-
SOUTHWEST ILLINOIS

CITY           SKY/WX    TMP DP  RH WIND       PRES   REMARKS
ALTON          MOSUNNY   77  61  57 NW9       30.13F
BELLEVILLE     MOSUNNY   78  54  43 VRB7      30.12F
CAHOKIA*       PTSUNNY   80  52  37 VRB7      30.12F HX  80
SPARTA*        PTSUNNY   75  54  46 W7        30.14F
$$

ILZ064>066-069>071-074>076-080>082-084>086-088>090-092>094-292000-
SOUTH-CENTRAL ILLINOIS

CITY           SKY/WX    TMP DP  RH WIND       PRES   REMARKS
CARBONDALE     MOSUNNY   79  52  38 N7        30.13F
CAIRO*         PTSUNNY   78  52  40 E3        30.13F
EFFINGHAM*     MOSUNNY   77  49  37 NW8       30.11S
MARION         PTSUNNY   77  52  41 NW12      30.14F
MT. VERNON     MOSUNNY   77  54  44 W8        30.13F
CENTRALIA*     MOSUNNY   78  50  36 W5        30.13S
SALEM*         MOSUNNY  N/A N/A N/A W12       30.12F
METROPOLIS*    PTSUNNY   78  47  33 NW5       30.12F
$$

ILZ067-068-072-073-078-083-087-091-292000-
SOUTHEAST ILLINOIS

CITY           SKY/WX    TMP DP  RH WIND       PRES   REMARKS
FLORA*         SUNNY     77  53  43 W9G16     30.12S
FAIRFIELD*     MOSUNNY   77  55  47 CALM      30.11F
HARRISBURG*    SUNNY     75  53  46 N5        30.13F
ROBINSON*      MOSUNNY   78  61  54 NW12      30.10S HX  80
CARMI*         MOSUNNY   79  59  50 NW9       30.11S HX  80
$$

ABBREVIATIONS USED IN REMARKS
   TC - TEMPERATURE IN CELSIUS
  WCI - WIND CHILL INDEX
   HX - HEAT INDEX
  VSB - VISIBILITY
$$




USA.gov is the U.S. government's official web portal to all federal, state and local government web resources and services.